DW3383 Weather Reports


Display with metric or nautical units.
time (UTC)temp
F
wind
direction
speed
MPH
gust
MPH
rain 1hr
in
rain 24hr
in
rain mn
in
humidity
%
barometer
mb
20260831200804 52 57 1.0 2.0 0.00 0.00 0.00 79 1000.3
20260831200305 52 32 1.0 6.0 0.00 0.00 0.00 79 1000.3
20260831190805 50 346 2.0 5.0 0.00 0.00 0.00 83 1001.0
20260831180305 46 268 3.0 6.0 0.00 0.00 0.00 91 1001.7
20260831170804 44 358 2.0 3.0 0.00 0.00 0.00 95 1002.2
20260831170304 44 333 2.0 6.0 0.00 0.00 0.00 95 1002.3
20260831160805 43 325 3.0 5.0 0.00 0.00 0.00 96 1002.6
20260831160304 43 281 5.0 6.0 0.00 0.00 0.00 97 1002.7
20260831150804 38 279 3.0 5.0 0.00 0.00 0.00 99 1003.4
20260831150304 38 296 3.0 5.0 0.00 0.00 0.00 99 1003.5
20260831140804 38 286 2.0 5.0 0.00 0.01 0.00 98 1004.0
20260831140305 38 277 3.0 7.0 0.00 0.01 0.00 98 1004.1
20260831130804 35 279 3.0 5.0 0.00 0.02 0.00 98 1004.5
20260831130304 35 158 4.0 6.0 0.00 0.02 0.00 98 1004.6
20260831120303 31 264 2.0 3.0 0.00 0.04 0.00 98 1005.5
20260831110803 31 278 2.0 3.0 0.00 0.09 0.00 98 1006.4
20260831110303 31 279 2.0 5.0 0.00 0.18 0.00 98 1006.5
20260831100803 31 276 2.0 3.0 0.00 0.26 0.00 98 1007.1
20260831100303 31 280 2.0 3.0 0.00 0.26 0.00 98 1007.2
20260831090303 33 272 3.0 5.0 0.00 0.50 0.00 98 1007.8
20260831080303 34 279 3.0 5.0 0.00 0.65 0.00 98 1008.3
20260831070812 36 154 3.0 5.0 0.00 0.80 0.00 98 1008.7
20260831070303 37 252 3.0 5.0 0.00 0.81 0.00 98 1008.8
20260831060803 40 268 3.0 3.0 0.00 0.86 0.65 96 1009.3
20260831060303 40 271 3.0 7.0 0.00 0.86 0.65 96 1009.3
20260831050802 45 149 3.0 6.0 0.00 0.86 0.65 92 1009.7
20260831050303 45 267 4.0 5.0 0.00 0.86 0.65 92 1009.8
20260831040802 49 25 3.0 5.0 0.00 0.86 0.65 86 1010.2
20260831030304 50 278 5.0 5.0 0.00 0.86 0.65 75 1010.2
20260831020803 52 33 1.0 2.0 0.00 0.87 0.65 70 1010.5
20260831010303 52 117 1.0 3.0 0.00 0.88 0.65 69 1010.7
20260831000802 52 87 1.0 5.0 0.00 0.88 0.65 76 1011.2
20260830220804 51 281 2.0 5.0 0.00 0.88 0.65 81 1012.1
20260830210804 49 35 3.0 6.0 0.00 0.88 0.65 86 1012.4
20260830210305 49 27 2.0 7.0 0.00 0.88 0.65 84 1012.5